Location: Kergrach
(48.3833°N, 4.5167°W)
Time: 08:26:16
(UTC+00:00)

Cosmos 1470 Rocket - Pass Details

Date: 18 February 2020
Orbit: 604 x 633 km, 82.5° (Epoch: 31 March)

Event Time Altitude Azimuth Distance (km) Brightness Sun altitude
Rises 06:40:18 0° 351° (N) 2,922 6.8 -7.4°
Reaches altitude 10° 06:42:33 10° 353° (N) 2,014 6.0 -7.1°
Maximum altitude 06:47:01 77° 80° (E) 653 3.9 -6.3°
Drops below altitude 10° 06:51:29 10° 166° (SSE) 2,010 6.5 -5.6°
Sets 06:53:43 0° 168° (SSE) 2,915 7.4 -5.2°
